Regional Weather Roundup
Issued by NWS Nashville, TN

Home | Current Version | Previous Version | Text Only | Print | Product List | Glossary On
Versions: 1 2 3 4 5 6 7 8 9 10 11 12 13 14 15 16 17 18 19 20 21 22 23 24 25 26 27 28 29 30 31 32 33 34 35 36 37 38 39 40 41 42 43 44 45 46 47 48 49 50
000
ASUS44 KOHX 272200
RWROHX
MIDDLE TENNESSEE HOURLY WEATHER ROUNDUP
NATIONAL WEATHER SERVICE NASHVILLE TN
400 PM CST THU NOV 27 2014

NOTE: "FAIR" INDICATES FEW OR NO CLOUDS BELOW 12,000 FEET WITH
NO SIGNIFICANT WEATHER AND/OR OBSTRUCTIONS TO VISIBILITY.

* THESE REPORTS ARE NOT UNDER NWS QUALITY CONTROL AND MAY NOT
  REPORT WEATHER SUCH AS PRECIPITATION AND FOG.


TNZ005>011-023>034-057-059-062>066-078-080-272300
...NORTHERN MIDDLE TENNESSEE...

CITY           SKY/WX    TMP DP  RH WIND       PRES   REMARKS
CLARKSVILLE    CLOUDY    33  22  63 NW12      30.46R WCI  24
CROSSVILLE     CLOUDY    31  22  69 W10       30.33R WCI  22
NASHVILLE      PTCLDY    35  23  61 NW10      30.44R WCI  27
SPARTA         MOCLDY    34  27  75 NW9       30.37R WCI  26
$$
TNZ056-058-060-061-075>077-079-093>097-272300
...SOUTHERN MIDDLE TENNESSEE...

CITY           SKY/WX    TMP DP  RH WIND       PRES   REMARKS
COLUMBIA       CLOUDY    37  28  70 NW5       30.41R WCI  34
MCMINNVILLE    MOCLDY    34  25  69 NW3       30.39R
SHELBYVILLE    CLOUDY    37  27  65 NW8       30.42R WCI  31
TULLAHOMA      CLOUDY    36  23  60 NW7       30.38S WCI  30
WINCHESTER     CLOUDY    36  27  69 N7        30.39R WCI  30
$$


...KEY TO REMARKS...
VSB - VISIBILITY IN MILES
WCI - WIND CHILL INDEX
HX  - HEAT INDEX




USA.gov is the U.S. government's official web portal to all federal, state and local government web resources and services.